Casement, Ireland

12:56 PM GMT on February 09, 2016 (GMT +0000)
Casement Air Base

Weather History for EIME - March, 2014

Change the Weather History Date:

Thursday, March 27, 2014

  Actual Average (EIDW) Record (EIDW)
Temperature  
Mean Temperature 37 °F -  
Max Temperature 43 °F 52 °F 64 °F (2012)
Min Temperature 31 °F 38 °F 31 °F (2013)
Degree Days  
Heating Degree Days 28    
Moisture  
Dew Point 35 °F    
Average Humidity 84    
Maximum Humidity 100    
Minimum Humidity 59    
Precipitation  
Precipitation 0.16 in - - ()
Sea Level Pressure  
Sea Level Pressure 29.93 in    
Wind  
Wind Speed 6 mph ()    
Max Wind Speed 17 mph    
Max Gust Speed -    
Visibility 9.5 miles    
Events Rain , Hail    
Averages and records for this station are not official NWS values.
T = Trace of Precipitation, MM = Missing Value Source: Averaged Metar Reports

Daily Weather History Graph

Daily Weather History Graph

Search for Another Location

Airport or City:

Trip Planner

Search our weather history database for the weather conditions in past years. The results will help you decide how hot, cold, wet, or windy it might be!

Date:

Astronomy

Mar. 27, 2014 Rise Set
Actual Time 6:11 AM GMT 6:51 PM GMT
Civil Twilight 5:36 AM GMT 7:26 PM GMT
Nautical Twilight 4:54 AM GMT 8:08 PM GMT
Astronomical Twilight 4:10 AM GMT 8:53 PM GMT
Moon 4:22 AM GMT (3/27) 2:56 PM GMT (3/27)
Length of Visible Light 13h 49m
Length of Day
12h 39m
Waning Crescent, 14% of the Moon is Illuminated
Mar 27
Waning Crescent
Mar 30
New
Apr 7
First Quarter
Apr 15
Full
Apr 22
Last Quarter

Hourly Weather History & Observations

Time (GMT) Temp. Windchill Dew Point Humidity Pressure Visibility Wind Dir Wind Speed Gust Speed Precip Events Conditions
12:00 AM 34 °F - 32 °F 89% 30.00 in 16 mi SSW 4.5 mph - -   Partly Cloudy
12:00 AM 33.8 °F 29.6 °F 32.0 °F 93% 29.98 in - South 4.6 mph - N/A   Clear
1:00 AM 33 °F - 31 °F 89% 29.98 in 16 mi SSW 2.2 mph - -   Partly Cloudy
1:00 AM 32.0 °F 27.5 °F 30.2 °F 93% 29.95 in - South 4.6 mph - N/A   Clear
2:00 AM 31 °F - 30 °F 96% 29.95 in 16 mi South 2.2 mph - -   Partly Cloudy
2:00 AM 30.2 °F 26.7 °F 30.2 °F 100% 29.92 in - South 3.5 mph - N/A   Clear
3:00 AM 30 °F - 29 °F 95% 29.93 in 16 mi West 4.5 mph - -   Scattered Clouds
3:00 AM 30.2 °F 25.4 °F 28.4 °F 93% 29.89 in 6.2 mi West 4.6 mph - N/A   Mostly Cloudy
4:00 AM 32 °F - 31 °F 92% 29.91 in 12 mi West 4.5 mph - -   Partly Cloudy
4:00 AM 35.6 °F - 32.0 °F 87% 29.89 in 6.2 mi West 2.3 mph - N/A   Mostly Cloudy
5:00 AM 34 °F - 33 °F 93% 29.89 in 12 mi WNW 2.2 mph - -   Partly Cloudy
5:00 AM 33.8 °F - 33.8 °F 100% 29.86 in 6.2 mi NW 2.3 mph - N/A   Mostly Cloudy
6:00 AM 34 °F - 33 °F 93% 29.88 in 12 mi WNW 4.5 mph - -   Mostly Cloudy
6:00 AM 33.8 °F 30.8 °F 32.0 °F 93% 29.86 in 6.2 mi NW 3.5 mph - N/A   Mostly Cloudy
7:00 AM 38 °F - 35 °F 87% 29.88 in 6 mi North 6.7 mph - - Rain Light Rain Showers
7:00 AM 37.4 °F 31.4 °F 35.6 °F 93% 29.86 in 5.6 mi North 8.1 mph - N/A Rain Light Rain Showers
8:00 AM 37 °F - 35 °F 91% 29.88 in 7 mi WNW 4.5 mph - - Rain Light Rain
8:00 AM 37.4 °F 33.8 °F 35.6 °F 93% 29.86 in 6.2 mi WNW 4.6 mph - N/A Rain Light Rain
8:30 AM 35.6 °F 31.7 °F 35.6 °F 100% 29.86 in 6.2 mi East 4.6 mph - N/A Rain Rain
9:00 AM 37 °F - 36 °F 92% 29.89 in 10 mi Calm Calm - - Rain Light Rain
9:00 AM 37.4 °F - 35.6 °F 93% 29.86 in 6.2 mi South 1.2 mph - N/A Rain Light Rain
9:30 AM 39.2 °F - 37.4 °F 93% 29.86 in 6.2 mi Calm Calm - N/A   Mostly Cloudy
10:00 AM 42 °F - 40 °F 88% 29.89 in 12 mi NE 4.5 mph - - Rain Light Rain
10:00 AM 42.8 °F 40.1 °F 39.2 °F 87% 29.86 in 6.2 mi NE 4.6 mph - N/A   Mostly Cloudy
10:30 AM 41.0 °F 33.9 °F 37.4 °F 87% 29.89 in 6.2 mi East 12.7 mph - N/A Rain Light Rain Showers
11:00 AM 39 °F - 37 °F 89% 29.93 in 11 mi East 11.2 mph - - Rain Light Rain Showers
11:00 AM 39.2 °F 32.5 °F 37.4 °F 93% 29.89 in 6.2 mi ESE 10.4 mph - N/A Rain Light Rain Showers
11:30 AM 41.0 °F 34.7 °F 37.4 °F 87% 29.92 in 6.2 mi East 10.4 mph - N/A Rain Light Rain Showers
12:00 PM 43 °F - 38 °F 77% 29.94 in 12 mi ESE 13.4 mph - - Rain Light Rain Showers
12:00 PM 42.8 °F 36.2 °F 39.2 °F 87% 29.92 in 6.2 mi ESE 12.7 mph - N/A   Scattered Clouds
12:30 PM 42.8 °F 34.8 °F 37.4 °F 81% 29.92 in 6.2 mi ESE 17.3 mph - N/A   Mostly Cloudy
1:00 PM 42 °F - 35 °F 68% 29.95 in 19 mi ESE 15.7 mph - -   Mostly Cloudy
1:00 PM 41.0 °F 33.1 °F 35.6 °F 81% 29.92 in 6.2 mi ESE 15.0 mph - N/A   Mostly Cloudy
1:30 PM 42.8 °F 35.1 °F 35.6 °F 76% 29.92 in 6.2 mi ESE 16.1 mph - N/A   Mostly Cloudy
2:00 PM 43 °F - 33 °F 59% 29.95 in 19 mi East 15.7 mph - -   Mostly Cloudy
2:00 PM 42.8 °F 35.1 °F 33.8 °F 70% 29.92 in 6.2 mi East 16.1 mph - N/A   Mostly Cloudy
2:30 PM 41.0 °F 33.9 °F 33.8 °F 76% 29.95 in 6.2 mi East 12.7 mph - N/A   Mostly Cloudy
3:00 PM 43 °F - 34 °F 62% 29.96 in 12 mi East 8.9 mph - - Hail Light Hail Showers
3:00 PM 42.8 °F 35.8 °F 33.8 °F 70% 29.92 in 6.2 mi East 13.8 mph - N/A   Mostly Cloudy
3:30 PM 44.6 °F 38.4 °F 33.8 °F 66% 29.92 in 6.2 mi East 12.7 mph - N/A   Mostly Cloudy
4:00 PM 42 °F - 34 °F 63% 29.96 in 19 mi East 15.7 mph - -   Mostly Cloudy
4:00 PM 42.8 °F 35.4 °F 33.8 °F 70% 29.95 in 6.2 mi East 15.0 mph - N/A   Mostly Cloudy
4:30 PM 42.8 °F 37.0 °F 35.6 °F 76% 29.95 in 6.2 mi ENE 10.4 mph - N/A   Mostly Cloudy
5:00 PM 42 °F - 35 °F 67% 29.97 in 19 mi East 13.4 mph - -   Mostly Cloudy
5:00 PM 42.8 °F 35.8 °F 35.6 °F 76% 29.95 in 6.2 mi East 13.8 mph - N/A   Mostly Cloudy
6:00 PM 42 °F - 36 °F 72% 29.97 in 19 mi ENE 11.2 mph - -   Partly Cloudy
6:00 PM 42.8 °F 37.0 °F 35.6 °F 76% 29.95 in 6.2 mi ENE 10.4 mph - N/A   Mostly Cloudy
7:00 PM 42 °F - 36 °F 70% 29.98 in 19 mi ENE 8.9 mph - -   Partly Cloudy
7:00 PM 42.8 °F 37.5 °F 35.6 °F 76% 29.95 in 6.2 mi ENE 9.2 mph - N/A   Scattered Clouds
8:00 PM 41 °F - 36 °F 74% 29.99 in 10 mi NE 6.7 mph - -   Partly Cloudy
8:00 PM 41.0 °F 37.1 °F 35.6 °F 81% 29.98 in 6.2 mi NE 5.8 mph - N/A   Scattered Clouds
9:00 PM 40 °F - 36 °F 78% 30.00 in 10 mi North 4.5 mph - -   Mostly Cloudy
9:00 PM 39.2 °F 35.9 °F 35.6 °F 87% 29.98 in 6.2 mi North 4.6 mph - N/A   Scattered Clouds
10:00 PM 39 °F - 36 °F 84% 30.00 in 12 mi North 2.2 mph - -   Mostly Cloudy
10:00 PM 39.2 °F - 35.6 °F 87% 29.98 in 6.2 mi North 2.3 mph - N/A   Scattered Clouds
11:00 PM 40 °F - 37 °F 85% 30.00 in 10 mi NNE 4.5 mph - -   Mostly Cloudy
11:00 PM 41.0 °F 39.0 °F 37.4 °F 87% 29.98 in 6.2 mi North 3.5 mph - N/A   Mostly Cloudy